Regional Weather Roundup
Issued by NWS

Home | Current Version | Previous Version | Text Only | Print | Product List | Glossary On
Versions: 1 2 3 4 5 6 7 8 9 10 11 12 13 14 15 16 17 18 19 20 21 22 23 24 25 26 27 28 29 30 31 32 33 34 35 36 37 38 39 40 41 42 43 44 45 46 47 48 49 50
000
ASUS43 KTOP 302259
RWRKS

WEATHER ROUNDUP FOR KANSAS
NATIONAL WEATHER SERVICE GOODLAND KS
600 PM CDT WED JUL 30 2014

NOTE:  "FAIR" INDICATES FEW OR NO CLOUDS BELOW 12,000 FEET WITH NO
SIGNIFICANT WEATHER AND/OR OBSTRUCTIONS TO VISIBILITY.

KSZ001>006-013>018-027>032-041>047-310000-
NORTHWEST KANSAS

CITY           SKY/WX    TMP DP  RH WIND       PRES   REMARKS
GOODLAND       CLOUDY    72  54  53 N3        30.25F
HAYS           PTSUNNY   77  54  44 NE13      30.15F
HILL CITY      MOSUNNY   81  51  35 VRB7      30.16F
RUSSELL        PTSUNNY   78  54  43 NE12      30.12F
$$

KSZ061>065-074>080-084>089-310000-
SOUTHWEST KANSAS

CITY           SKY/WX    TMP DP  RH WIND       PRES   REMARKS
DODGE CITY     CLOUDY    69  59  70 NE17      30.17R
ELKHART          N/A     66  60  81 N10         N/A
GARDEN CITY    PTSUNNY   69  57  65 NE15      30.20R
GREAT BEND       N/A     70  61  73 E10       30.14S
LIBERAL        PTSUNNY   70  61  73 NE18      30.18R
$$

KSZ066>073-081>083-090>101-310000-
SOUTHEAST KANSAS

CITY           SKY/WX    TMP DP  RH WIND       PRES   REMARKS
CHANUTE        LGT RAIN  69  65  86 NE6       30.09S
COFFEYVILLE    LGT RAIN  69  67  93 E8        30.06S
HUTCHINSON     CLOUDY    70  63  78 NE9       30.12S
NEWTON         CLOUDY    66  59  77 NE7       30.14S
PARSONS        LGT RAIN  68  66  93 CALM      30.08F
WICHITA INTL   LGT RAIN  68  65  90 NE12      30.09S
WICHITA JABRA  CLOUDY    68  32  26 NE6       30.10S
WICHITA MCCONL LGT RAIN  68  68 100 E10       30.09F
WINFIELD       LGT RAIN  69  68  96 NE12      30.08S
$$

KSZ007>012-019>026-033>040-048>060-102>105-310000-
NORTHEAST KANSAS

CITY           SKY/WX    TMP DP  RH WIND       PRES   REMARKS
CONCORDIA      MOSUNNY   80  52  37 NE7       30.11S
EMPORIA        CLOUDY    70  64  81 NE3       30.10S
LAWRENCE       CLOUDY    78  59  51 N6        30.08S
MANHATTAN      PTSUNNY   80  55  42 VRB3      30.08F
OLATHE IND     CLOUDY    77  59  53 S8        30.09S
OLATHE EXE     CLOUDY    75  59  57 S6        30.08S
SALINA         PTSUNNY   77  55  46 E7        30.12S
TOPEKA BILLARD PTSUNNY   80  56  43 NE6       30.08F
TOPEKA FORBES  PTSUNNY   78  53  41 NE6       30.08F
$$



USA.gov is the U.S. government's official web portal to all federal, state and local government web resources and services.